Flag for Germany Weather past 2 weeks in Düsseldorf, North Rhine-Westphalia, Germany

Now
48 °F

Drizzle. More clouds than sun.


Feels Like: 43 °F
Forecast: 46 / 52 °F
Wind: 14 mph from South

Location: Duesseldorf

Current Time: Mar 28, 2015 at 3:53:09 PM

Latest Report: Mar 28, 2015 at 3:20 PM


Visibility: 3 mi

Pressure: 29.95 "Hg

Humidity: 94%

Dew point: 46 °F

Location of DüsseldorfLocation

Historic Weather in Düsseldorf — Graph

°F

Düsseldorf temperature yesterday

Maximum temperature yesterday: 50 °F (at 1:50 PM)
Minimum temperature yesterday: 37 °F (at 10:50 PM)
Average temperature yesterday: 45 °F

Past Weeks' High & Low Weather Summary

 TemperatureHumidityPressure
High64 °F (Mar 17, 1:50 PM)100% (Mar 20, 2:50 AM)30.39 "Hg (Mar 20, 2:50 AM)
Low30 °F (Mar 20, 2:50 AM)32% (Mar 17, 4:20 PM)29.65 "Hg (Mar 25, 1:20 AM)
Average43 °F77%30.11 "Hg
* Reported Mar 13 2:20 PM — Mar 28 2:20 PM, Düsseldorf, Weather by CustomWeather, © 2015

Note: Actual official high and low records may vary slightly from our data, if they occured in-between our weather recording intervals... More about our weather records

Advertising

Düsseldorf weather history for previous 24 hours

 ConditionsComfort  
Time TempWeatherWind HumidityBarometerVisibility
2:20 PM
Sat, Mar 28
50 °FLight rain. Partly sunny.14 mph82%29.98 "HgN/A
1:50 PM50 °FLight rain. Partly sunny.14 mph82%29.98 "HgN/A
1:20 PM50 °FLight rain. Partly sunny.14 mph76%30.01 "HgN/A
12:50 PM52 °FLight rain. Partly sunny.15 mph67%30.01 "HgN/A
12:20 PM54 °FPartly sunny.15 mph51%30.01 "HgN/A
11:50 AM54 °FPartly sunny.16 mph51%30.04 "HgN/A
11:20 AM54 °FPartly sunny.17 mph51%30.07 "HgN/A
10:50 AM52 °FSunny.15 mph58%30.07 "Hg10 mi
10:20 AM50 °FSunny.13 mph58%30.07 "Hg10 mi
9:50 AM48 °FPartly sunny.10 mph66%30.09 "HgN/A
9:20 AM46 °FScattered clouds.9 mph71%30.09 "HgN/A
8:50 AM43 °FPartly sunny.10 mph76%30.12 "HgN/A
8:20 AM41 °FPartly sunny.10 mph81%30.12 "HgN/A
7:50 AM41 °FPartly sunny.12 mph81%30.12 "HgN/A
7:20 AM39 °FSunny.9 mph81%30.15 "Hg10 mi
6:50 AM37 °FSunny.10 mph87%30.15 "Hg10 mi
6:20 AM37 °FSunny.9 mph87%30.15 "Hg10 mi
5:50 AM34 °FClear.3 mph93%30.15 "Hg10 mi
5:20 AM32 °FClear.3 mph93%30.18 "Hg10 mi
4:20 AM34 °FClear.2 mph93%30.18 "Hg10 mi
3:50 AM36 °FPassing clouds.2 mph87%30.21 "HgN/A
3:20 AM36 °FPassing clouds.1 mph87%30.21 "HgN/A
2:50 AM37 °FPassing clouds.1 mph81%30.21 "HgN/A
2:20 AM37 °FPassing clouds.2 mph87%30.21 "HgN/A
1:50 AM39 °FPassing clouds.5 mph81%30.21 "HgN/A
1:20 AM39 °FChilly.5 mph81%30.21 "HgN/A
12:50 AM39 °FClear.6 mph87%30.21 "Hg10 mi
12:20 AM39 °FClear.2 mph81%30.21 "Hg10 mi
11:50 PM
Fri, Mar 27
39 °FClear.6 mph81%30.21 "Hg10 mi
11:20 PM37 °FClear.5 mph87%30.21 "Hg10 mi
10:50 PM37 °FClear.5 mph87%30.21 "Hg10 mi
10:20 PM39 °FPassing clouds.3 mph81%30.21 "HgN/A
9:50 PM43 °FClear.5 mph71%30.21 "Hg10 mi
9:20 PM43 °FClear.3 mph71%30.21 "Hg10 mi
8:50 PM43 °FClear.5 mph71%30.21 "Hg10 mi
8:20 PM45 °FClear.6 mph66%30.18 "Hg10 mi
7:50 PM46 °FPassing clouds.7 mph66%30.18 "HgN/A
7:20 PM46 °FPassing clouds.7 mph66%30.18 "HgN/A
6:50 PM46 °FPartly sunny.8 mph66%30.15 "HgN/A
6:20 PM48 °FPartly sunny.10 mph58%30.15 "HgN/A
5:50 PM48 °FPartly sunny.10 mph62%30.12 "HgN/A
5:20 PM48 °FPartly sunny.13 mph58%30.12 "HgN/A
4:50 PM48 °FPartly sunny.13 mph58%30.12 "HgN/A
4:20 PM48 °FPartly sunny.15 mph58%30.09 "HgN/A
3:50 PM50 °FPartly sunny.17 mph54%30.09 "HgN/A
3:20 PM48 °FPartly sunny.16 mph58%30.09 "HgN/A
Weather by CustomWeather, © 2015

See weather overviewHow to use our weather pages